SCP
1 1 1 1 1 1 1 1 0 0 0 0 0 0 0 0 0 0 0 0 0 0 0 0 0 0 0 0 0 0 0 0 0 0 0 0 0 0
1 1 1 1 1 1 1 1 0 0 0 1 0 0 0 0 0 0 0 0 0 0 0 0 0 0 0 0 0 0 0 0 0 0 0 0 0 0
1 1 1 1 1 1 1 1 1 1 1 0 0 0 0 0 0 0 0 0 0 0 0 0 0 0 0 0 0 0 0 0 0 0 0 0 0 0
1 1 1 1 1 1 1 1 1 0 0 0 1 0 0 0 1 0 0 0 0 0 0 0 0 0 0 0 0 0 0 0 0 0 0 0 0 0
1 1 1 0 0 0 0 0 0 0 0 0 1 1 0 0 1 1 0 0 0 0 0 0 0 0 0 0 0 0 0 0 0 0 0 0 0 0
0 0 0 0 0 0 0 0 0 0 0 0 0 0 0 0 1 1 0 0 0 1 1 0 0 0 0 0 0 0 0 0 0 0 0 0 0 0
0 0 0 0 0 0 0 0 0 0 0 0 0 0 0 0 0 0 0 0 0 1 1 1 0 0 0 0 0 0 0 0 0 0 0 0 0 0
0 0 0 0 0 0 0 0 0 0 0 0 0 0 0 0 0 0 0 0 0 0 1 0 0 0 0 0 0 0 0 0 0 0 0 0 0 0
0 0 0 0 0 0 0 0 0 0 0 0 0 0 0 0 0 0 0 0 0 0 0 0 0 0 0 0 0 0 0 0 0 0 0 0 0 0
0 0 0 0 0 0 0 0 0 0 0 0 0 0 0 0 0 0 0 0 0 0 0 0 0 0 0 0 0 0 0 0 0 0 0 0 0 0
0 0 0 0 0 0 0 0 0 0 0 0 0 0 0 0 0 0 0 0 0 0 0 0 0 0 0 0 0 0 0 0 0 0 0 0 0 0
0 0 0 0 0 0 0 0 0 0 0 0 0 0 0 0 0 0 0 0 0 0 0 0 0 0 0 0 0 0 0 0 0 0 0 0 0 0
0 0 0 0 0 0 0 0 0 0 0 0 0 0 0 0 0 0 0 0 0 0 0 0 0 0 0 0 0 0 0 0 0 0 0 0 0 0
0 0 0 0 0 0 0 0 0 0 0 0 0 0 0 0 0 0 0 0 0 0 0 0 0 0 0 0 0 0 0 0 0 0 0 0 0 0
0 0 0 0 0 0 0 0 0 0 0 0 0 0 0 0 0 0 0 0 0 0 0 0 0 0 0 0 0 0 0 0 0 0 0 0 0 0
0 0 0 0 0 0 0 0 0 0 0 0 0 0 0 0 0 0 0 0 0 0 0 0 0 0 0 0 0 0 0 0 0 0 0 0 0 0
0 0 0 0 0 0 0 0 0 0 0 0 0 0 0 0 0 0 0 0 0 0 0 0 0 0 0 0 0 0 0 0 0 0 0 0 0 0
0 0 0 0 0 0 0 0 0 0 0 0 0 0 0 0 0 0 0 0 0 0 0 0 0 0 0 0 0 0 0 0 0 0 0 0 0 0
0 0 0 0 0 0 0 0 0 0 0 0 0 0 0 0 0 0 0 0 0 0 0 0 0 0 0 0 0 0 0 0 0 0 0 0 0 0
0 0 0 0 0 0 0 0 0 0 0 0 0 0 0 0 0 0 0 0 0 0 0 0 0 0 0 0 0 0 0 0 0 0 0 0 0 0
0 0 0 0 0 0 0 0 0 0 0 0 0 0 0 0 0 0 0 0 0 0 0 0 0 0 0 0 0 0 0 0 0 0 0 0 0 0
0 0 0 0 0 0 0 0 0 0 0 0 0 0 0 0 0 0 0 0 0 0 0 0 0 0 0 0 0 0 0 0 0 0 0 0 0 0
0 0 0 0 0 0 0 0 0 0 0 0 0 0 0 0 0 0 0 0 0 0 0 0 0 0 0 0 0 0 0 0 0 0 0 0 0 0
Wind_Speed
7 7 6 5 5 5 4 4 4 4 5 4 3 2 2 2 3 6 8 10 11 10 10 9 9 8 6 5 5 4 4 4 5 5 6 7 7 8
4 6 5 4 4 5 5 5 4 3 3 3 3 3 2 3 3 5 5 8 9 9 9 9 9 8 7 6 5 5 5 5 6 6 7 7 8 8
3 4 5 5 4 4 4 5 4 4 3 2 2 3 4 3 3 4 4 6 7 9 8 8 8 8 7 6 6 6 6 6 6 7 7 8 9 9
3 4 4 4 4 3 3 4 4 4 3 4 3 3 3 2 2 3 3 3 4 8 7 6 6 5 4 4 5 5 5 5 5 6 7 8 9 9
3 4 4 5 4 3 3 3 3 3 3 3 3 2 2 2 3 3 4 4 4 7 7 6 5 4 3 1 1 1 2 2 3 4 5 6 7 8
2 3 3 4 4 4 3 3 3 3 3 3 3 3 3 3 3 4 4 4 4 6 7 8 10 11 10 8 6 5 4 3 3 3 3 4 5 6
1 2 3 3 2 3 3 3 4 3 3 3 3 3 3 4 4 4 5 6 5 4 6 6 6 6 7 9 10 10 9 9 8 8 8 8 8 9
1 1 3 4 4 5 4 2 2 3 3 3 3 4 4 4 3 4 6 6 4 4 5 6 6 7 7 7 10 12 12 12 11 11 12 11 12 12
2 1 1 3 3 4 6 6 4 3 1 2 3 3 4 4 5 5 5 5 5 5 6 6 5 7 7 9 13 13 13 13 13 13 13 13 13 14
4 3 2 4 4 3 5 6 6 5 2 2 4 5 4 4 4 5 8 9 8 4 4 5 4 6 7 8 13 15 15 14 14 14 13 12 11 13
5 5 3 4 5 2 5 7 8 7 10 13 13 11 11 8 3 6 7 7 6 4 3 4 5 6 6 7 10 15 15 15 15 15 14 11 6 2
4 4 7 5 5 1 4 6 7 7 7 8 8 8 8 7 3 3 4 6 6 4 3 4 6 5 4 4 4 5 8 12 13 14 15 16 15 5
3 3 5 6 4 2 1 4 6 6 7 7 6 7 6 6 6 6 5 3 4 5 4 4 5 4 5 5 3 4 4 4 5 8 11 13 14 11
4 3 5 6 6 4 4 7 6 5 6 5 6 6 6 6 7 8 9 9 8 7 4 2 3 3 5 6 4 3 4 4 4 4 5 6 7 8
5 8 7 5 5 7 8 6 4 4 5 6 6 6 6 7 7 7 9 10 12 10 7 5 4 3 3 5 5 4 3 3 4 4 5 5 6 5
5 6 7 7 6 7 6 4 3 4 5 6 7 6 5 5 5 5 5 6 7 8 9 10 8 7 6 6 5 4 3 3 2 3 3 4 5 5
3 3 4 4 5 5 4 4 4 5 6 6 6 6 5 5 4 4 3 4 5 6 7 7 9 10 10 7 5 5 4 3 2 2 1 2 4 4
3 5 5 5 5 4 5 5 5 5 5 5 5 5 5 5 5 4 4 5 5 6 6 5 5 6 6 7 8 3 3 2 2 1 2 1 3 3
5 6 5 5 4 4 4 4 4 4 4 5 5 5 4 4 4 4 4 4 5 5 4 2 2 2 3 4 5 5 2 1 0 1 1 2 2 3
5 5 5 4 4 4 4 4 5 4 4 5 5 4 4 4 4 4 4 4 4 4 3 2 0 1 1 2 4 4 4 3 2 1 1 1 1 3
5 4 4 4 4 4 4 4 4 4 4 4 4 4 3 4 4 3 4 3 2 3 3 3 2 2 1 3 4 4 4 3 4 4 4 3 2 3
3 4 3 3 3 3 3 3 4 4 4 4 4 3 3 3 4 4 3 3 3 3 3 4 4 3 3 2 3 4 3 4 4 3 1 3 5 4
2 2 2 2 2 2 1 2 2 3 3 3 3 3 3 3 3 3 3 3 3 4 4 4 4 3 2 2 2 2 2 2 2 3 4 7 6 8
Wind_Direction
211 208 203 201 200 199 192 195 195 204 215 218 208 203 214 235 161 216 218 184 197 204 204 199 195 197 203 216 228 229 226 227 230 236 245 257 268 277
204 203 197 195 194 191 190 196 203 206 206 186 198 183 194 218 192 239 220 151 192 201 201 198 195 197 203 214 223 228 231 235 241 248 254 262 270 277
174 185 182 177 180 182 184 188 195 194 196 181 193 190 204 221 188 214 205 201 181 184 191 192 194 198 204 218 228 234 241 247 255 263 268 272 275 278
164 164 166 162 164 169 175 182 181 188 192 189 187 190 210 197 204 199 196 196 173 148 168 175 183 192 208 228 240 247 255 263 270 277 283 287 289 290
158 165 161 159 164 164 169 178 178 183 192 197 175 162 183 175 178 170 163 155 143 135 137 130 114 105 95 80 294 290 296 299 300 300 302 303 306 305
144 157 158 160 165 162 164 174 177 180 187 191 181 175 170 168 190 167 148 130 122 115 96 95 94 85 76 68 64 61 56 48 34 21 11 360 352 347
108 161 153 157 171 173 174 180 184 187 186 191 184 180 172 174 180 166 144 128 103 105 105 97 96 85 82 73 68 67 67 66 62 60 58 53 48 45
61 97 150 173 169 171 164 160 181 194 191 189 191 185 165 159 149 157 149 149 121 105 101 84 80 77 65 64 61 69 70 68 65 65 64 61 59 58
42 72 102 107 139 145 142 148 125 76 346 214 169 145 139 145 156 157 152 130 110 123 112 93 86 83 76 64 61 65 67 68 68 67 69 67 64 61
42 52 98 118 104 127 142 131 114 90 62 109 103 93 94 117 130 124 117 110 103 97 113 103 105 95 87 73 64 66 66 65 66 66 67 67 70 68
50 49 53 108 97 111 141 129 116 98 69 65 66 76 67 52 68 131 137 133 121 105 101 111 123 110 97 96 84 77 70 66 63 60 54 40 20 116
59 71 61 58 91 73 150 136 124 116 116 111 104 109 100 88 35 127 136 138 131 117 120 127 151 144 113 86 90 102 90 84 75 62 52 37 11 9
54 60 63 59 86 70 113 121 120 124 119 111 101 93 85 81 74 70 72 96 117 107 139 153 169 169 135 129 92 66 69 80 93 94 76 58 39 29
47 57 70 67 82 72 95 107 121 134 126 120 106 94 86 78 73 73 74 70 70 91 121 157 153 166 142 136 126 110 80 66 62 61 71 113 99 91
56 56 63 69 106 94 94 116 155 142 125 115 103 94 94 98 96 91 89 84 75 61 53 66 90 112 122 124 127 137 118 71 47 51 52 47 47 41
91 94 87 70 83 96 119 133 124 104 110 110 110 113 112 110 107 109 110 107 93 76 58 58 63 73 81 85 100 103 96 99 73 52 56 61 56 53
60 96 97 102 98 98 96 95 104 113 111 118 124 126 123 117 108 101 105 110 109 105 96 84 80 75 62 54 96 96 103 100 81 42 37 73 71 58
66 81 77 79 85 93 97 96 95 98 110 119 120 122 124 124 118 112 110 110 114 115 117 121 126 129 118 80 29 72 101 104 96 34 332 353 80 69
71 74 73 73 75 82 89 95 97 102 109 113 115 118 121 121 119 117 117 118 121 123 124 141 202 234 206 141 98 18 20 94 168 155 1 340 20 46
61 65 68 72 79 88 97 106 110 112 114 117 118 120 124 124 123 125 125 128 134 139 138 132 336 304 297 128 126 107 18 347 321 325 322 249 213 201
68 67 66 73 81 89 94 101 107 111 115 118 117 121 127 131 130 129 117 110 158 160 150 122 98 305 89 127 139 140 113 65 358 349 338 310 278 254
73 77 72 67 74 81 93 110 119 121 127 126 125 131 131 134 137 145 149 160 159 141 128 126 154 194 205 211 167 148 154 161 159 177 277 319 326 323
89 81 79 74 67 73 97 126 140 138 140 142 145 148 148 146 148 152 153 155 151 154 158 157 162 174 183 182 176 167 174 216 252 240 202 178 215 250